Regional Weather Roundup
Issued by NWS

Home | Current Version | Previous Version | Graphics & Text | Print | Product List | Glossary On
Versions: 1 2 3 4 5 6 7 8 9 10 11 12 13 14 15 16 17 18 19 20 21 22 23 24 25 26 27 28 29 30 31 32 33 34 35 36 37 38 39 40 41 42 43 44 45 46 47 48 49 50
000
ASUS43 KOAX 041202
RWRNE

WEATHER ROUNDUP FOR NEBRASKA
NATIONAL WEATHER SERVICE OMAHA NE
700 AM CDT MON MAY 04 2015

NOTES: SATELLITE DATA IS BEING USED TO AUGMENT CLOUD COVER ABOVE
       12000 FEET.
       "FAIR" INDICATES FEW OR NO CLOUDS BELOW 12,000 FEET WITH NO
       SIGNIFICANT WEATHER AND/OR OBSTRUCTIONS TO VISIBILITY.

  * THESE STATIONS DO NOT REPORT WEATHER SUCH AS RAIN...SNOW OR FOG.

NEZ001>004-019>022-054>056-041300-
NEBRASKA PANHANDLE

CITY           SKY/WX    TMP DP  RH WIND       PRES   REMARKS
SCOTTSBLUFF    CLOUDY    51  37  58 E9        30.11R
6HR MIN TEMP:  50; 6HR MAX TEMP:  54;

ALLIANCE       CLOUDY    47  41  80 E6        30.12R
6HR MIN TEMP:  47; 6HR MAX TEMP:  52; 6HR PCP:  0.04;

CHADRON        LGT RAIN  47  41  80 N7        30.14R
6HR MIN TEMP:  46; 6HR MAX TEMP:  53; 6HR PCP:  0.04;

KIMBALL        DRIZZLE   46  40  81 SE6       30.10R
SIDNEY         CLOUDY    48  37  65 E8        30.11R
6HR MIN TEMP:  45; 6HR MAX TEMP:  51;

$$

NEZ057>060-069>072-079>082-041300-
SOUTHWEST NEBRASKA

CITY           SKY/WX    TMP DP  RH WIND       PRES   REMARKS
NORTH PLATTE   CLOUDY    51  35  54 NE8       30.05S
6HR MIN TEMP:  50; 6HR MAX TEMP:  56;

IMPERIAL       CLOUDY    51  36  56 SE6       30.07R
6HR MIN TEMP:  50; 6HR MAX TEMP:  58;

MCCOOK         CLOUDY    55  40  56 N6        30.04R
6HR MIN TEMP:  55; 6HR MAX TEMP:  62;

$$

NEZ005>010-023>029-035>040-094-041300-
NORTH CENTRAL NEBRASKA

CITY           SKY/WX    TMP DP  RH WIND       PRES   REMARKS
VALENTINE      CLOUDY    47  32  56 S3        30.15R
6HR MIN TEMP:  46; 6HR MAX TEMP:  52;

AINSWORTH      MOCLDY    46  33  59 N3        30.15R
BROKEN BOW     CLOUDY    54  29  38 NE14      30.06S
6HR MIN TEMP:  54; 6HR MAX TEMP:  60;

ORD            CLOUDY    56  28  34 NE10      30.07R
6HR MIN TEMP:  55; 6HR MAX TEMP:  60;

$$

NEZ041-046>049-061>064-073>077-083>087-041300-
SOUTH CENTRAL NEBRASKA

CITY           SKY/WX    TMP DP  RH WIND       PRES   REMARKS
GRAND ISLAND   CLOUDY    57  37  47 NE14      30.04R
6HR MIN TEMP:  57; 6HR MAX TEMP:  62;

AURORA         CLOUDY    54  46  73 NE15      30.02R
HASTINGS       CLOUDY    57  44  62 NE15      30.02R
6HR MIN TEMP:  57; 6HR MAX TEMP:  62; 6HR PCP:  0.12;

KEARNEY *      CLOUDY    55  39  54 NE14      30.02S
$$

NEZ011>018-030>034-042>045-041300-
NORTHEAST NEBRASKA

CITY           SKY/WX    TMP DP  RH WIND       PRES   REMARKS
NORFOLK        CLOUDY    56  32  40 N8        30.08R
6HR MIN TEMP:  56; 6HR MAX TEMP:  64;

BLAIR          CLOUDY    57  46  66 NE8       30.04R THUNDER
COLUMBUS *     CLOUDY    55  37  50 NE8       30.07R
FREMONT        CLOUDY    58  44  60 NE6       30.04R THUNDER
TEKAMAH        CLOUDY    57  42  57 N12       30.03R
6HR MIN TEMP:  56; 6HR MAX TEMP:  62;

$$

NEZ050>053-065>068-078-088>093-041300-
SOUTHEAST NEBRASKA

CITY           SKY/WX    TMP DP  RH WIND       PRES   REMARKS
LINCOLN        LGT RAIN  55  50  83 N8        30.03R
6HR MIN TEMP:  55; 6HR MAX TEMP:  64; 6HR PCP:  0.06;

OMAHA EPPLEY   CLOUDY    59  50  72 NW3       30.05R
6HR MIN TEMP:  57; 6HR MAX TEMP:  67;

FALLS CITY     CLOUDY    62  55  77 N9        29.98R
6HR MIN TEMP:  62; 6HR MAX TEMP:  70; 6HR PCP: TRACE;

PLATTSMOUTH    CLOUDY    58  52  79 NE10      30.03R
$$

NEZ044-045-051>053-067-041300-
OMAHA AREA

CITY           SKY/WX    TMP DP  RH WIND       PRES   REMARKS
OMAHA EPPLEY   CLOUDY    59  50  72 NW3       30.05R
6HR MIN TEMP:  57; 6HR MAX TEMP:  67;

BLAIR          CLOUDY    57  46  66 NE8       30.04R THUNDER
FREMONT        CLOUDY    58  44  60 NE6       30.04R THUNDER
PLATTSMOUTH    CLOUDY    58  52  79 NE10      30.03R
$$



USA.gov is the U.S. government's official web portal to all federal, state and local government web resources and services.